GW0603 Weather Reports


time (UTC)temp
F
wind
direction
speed
knots
gust
knots
rain 1hr
in
rain 24hr
in
rain mn
in
humidity
%
barometer
mb
20260505034553 61 196 2.6 7.8 0.00 0.00 0.00 48 1014.3
20260505033056 61 178 1.7 5.2 0.00 0.00 0.00 48 1014.4
20260505031609 61 213 0.9 5.2 0.00 0.00 0.00 48 1014.4
20260505030104 60 180 1.7 4.3 0.00 0.00 0.00 50 1014.5
20260505024557 59 229 0.0 1.7 0.00 0.00 0.00 51 1014.4
20260505023119 62 228 0.0 4.3 0.00 0.00 0.00 46 1014.4
20260505021555 63 0 0.0 7.0 0.00 0.00 0.00 44 1014.2
20260505020054 64 217 2.6 8.7 0.00 0.00 0.00 42 1014.1
20260505014608 65 234 2.6 5.2 0.00 0.00 0.00 42 1014.0
20260505013108 65 148 2.6 7.8 0.00 0.00 0.00 41 1013.8
20260505011557 65 124 1.7 7.8 0.00 0.00 0.00 40 1013.7
20260505004558 65 180 1.7 7.8 0.00 0.00 0.00 39 1013.4
20260505003057 66 150 1.7 6.1 0.00 0.00 0.00 38 1013.2
20260505001556 67 167 1.7 6.1 0.00 0.00 0.00 36 1013.2
20260505000114 67 183 1.7 4.3 0.00 0.00 0.00 35 1013.2
20260504234555 68 201 0.9 9.6 0.00 0.00 0.00 34 1013.2
20260504233059 69 157 3.5 8.7 0.00 0.00 0.00 33 1013.1
20260504231555 70 170 2.6 9.6 0.00 0.00 0.00 33 1013.1
20260504230107 71 187 5.2 13.0 0.00 0.00 0.00 34 1012.9
20260504224558 72 183 4.3 9.6 0.00 0.00 0.00 34 1012.7
20260504223105 72 223 3.5 13.0 0.00 0.00 0.00 34 1012.8
20260504221604 73 185 3.5 9.6 0.00 0.00 0.00 33 1012.8
20260504220101 73 207 3.5 11.3 0.00 0.00 0.00 32 1012.7
20260504214558 73 217 4.3 10.4 0.00 0.00 0.00 32 1012.8
20260504213104 73 184 6.1 13.0 0.00 0.00 0.00 31 1012.8
20260504211619 74 161 4.3 12.2 0.00 0.00 0.00 31 1012.7
20260504210058 76 204 2.6 9.6 0.00 0.00 0.00 29 1012.7
20260504204602 75 151 4.3 8.7 0.00 0.00 0.00 29 1012.8
20260504203109 76 203 4.3 11.3 0.00 0.00 0.00 30 1013.0
20260504201600 75 161 2.6 8.7 0.00 0.00 0.00 29 1013.3
20260504200057 76 196 0.9 8.7 0.00 0.00 0.00 29 1013.3
20260504194556 75 169 4.3 10.4 0.00 0.00 0.00 29 1013.3
20260504193055 74 14 4.3 11.3 0.00 0.00 0.00 30 1013.5
20260504191607 74 170 2.6 11.3 0.00 0.00 0.00 31 1013.9
20260504190107 75 31 1.7 9.6 0.00 0.00 0.00 32 1014.1
20260504184605 74 161 1.7 10.4 0.00 0.00 0.00 33 1014.3
20260504183105 74 127 1.7 9.6 0.00 0.00 0.00 31 1014.6
20260504181601 73 222 1.7 9.6 0.00 0.00 0.00 32 1014.7
20260504180107 72 133 2.6 7.8 0.00 0.00 0.00 32 1014.9
20260504174556 72 202 2.6 7.8 0.00 0.00 0.00 33 1015.1
20260504173056 70 167 4.3 10.4 0.00 0.00 0.00 34 1014.9
20260504171556 72 192 3.5 7.8 0.00 0.00 0.00 34 1014.9
20260504160104 70 209 1.7 7.0 0.00 0.00 0.00 35 1016.1
20260504081608 38 0 0.0 1.7 0.00 0.00 0.00 87 1016.2
20260504080111 38 0 0.0 0.0 0.00 0.00 0.00 85 1016.1
20260504050106 45 233 0.0 2.6 0.00 0.00 0.00 72 1016.4
20260504044601 45 0 0.0 1.7 0.00 0.00 0.00 73 1016.5
20260504043056 46 0 0.0 1.7 0.00 0.00 0.00 72 1016.3
20260504041602 47 146 0.0 0.9 0.00 0.00 0.00 72 1016.1